📊 Raw Sensor Data

Showing records 32201 to 32225 of 84,676 total

ID Distance (ft) Battery V Battery A Int Temp (°F) Int Humid (%) Ext Temp (°F) Solar V RSSI SNR Time Stamp
52488 15.0 3.99 -5 66 46 66 0.00 -70 8 09/19/2025 11:00 PM
52487 15.0 3.99 -5 66 46 68 0.00 -71 8 09/19/2025 10:45 PM
52486 15.0 4.04 -5 67 46 68 0.00 -73 8 09/19/2025 10:30 PM
52485 15.0 3.99 -5 67 46 68 0.00 -76 8 09/19/2025 10:15 PM
52484 15.0 3.99 -5 68 46 68 0.00 -73 8 09/19/2025 10:00 PM
52483 15.0 3.99 -5 68 47 69 0.00 -73 8 09/19/2025 09:45 PM
52482 15.0 4.05 -5 69 47 69 0.00 -73 8 09/19/2025 09:30 PM
52481 15.0 3.99 -5 70 47 70 0.00 -73 8 09/19/2025 09:15 PM
52480 15.0 3.99 -5 70 47 71 0.00 -73 8 09/19/2025 09:00 PM
52479 15.0 4.05 -5 71 48 71 0.00 -72 7 09/19/2025 08:45 PM
52478 15.0 3.99 -5 72 48 72 0.00 -71 8 09/19/2025 08:30 PM
52477 15.0 4.05 -5 73 48 73 0.10 -72 8 09/19/2025 08:15 PM
52476 14.9 4.00 -5 74 49 74 0.00 -71 8 09/19/2025 08:00 PM
52475 15.0 4.05 -5 75 50 74 0.00 -72 7 09/19/2025 07:45 PM
52474 15.0 4.00 -5 76 52 75 0.00 -72 7 09/19/2025 07:30 PM
52473 15.0 4.05 -5 78 53 76 1.10 -73 7 09/19/2025 07:15 PM
52472 15.0 4.07 0 85 52 80 4.50 -73 8 09/19/2025 06:45 PM
52471 15.0 4.05 12 89 51 82 4.50 -74 8 09/19/2025 06:30 PM
52470 15.0 4.09 30 93 49 83 4.60 -72 7 09/19/2025 06:15 PM
52469 15.1 4.05 0 96 48 84 5.10 -72 7 09/19/2025 06:00 PM
52468 15.1 4.05 0 98 47 89 5.10 -73 8 09/19/2025 05:45 PM
52467 15.1 4.05 0 98 46 82 5.10 -72 8 09/19/2025 05:30 PM
52466 15.2 4.05 0 100 44 85 5.10 -73 8 09/19/2025 05:15 PM
52465 15.3 4.05 0 99 44 89 5.10 -72 8 09/19/2025 05:00 PM
52464 15.3 4.05 0 99 43 84 5.10 -73 8 09/19/2025 04:45 PM